This is the latest recevied weather packets stored in our database for station/object SQ7ACP-3. If no packets are shown the sender has not sent any weather packets the latest 10 day(s).
| Time | Temp. | Humidity | Pressure | Rain* | Wind** | Luminosity | Snow |
|---|---|---|---|---|---|---|---|
| 1777525985 | 0° C | 71% | 1030.1 hPa | 0 mm | - | - | - |
| 1777525385 | 0° C | 72% | 1030.1 hPa | 0 mm | - | - | - |
| 1777524785 | -0.56° C | 73% | 1030 hPa | 0 mm | - | - | - |
| 1777524172 | -1.11° C | 75% | 1030 hPa | 0 mm | - | - | - |
| 1777523560 | -1.67° C | 80% | 1029.9 hPa | 0 mm | - | - | - |
| 1777522960 | -2.22° C | 82% | 1029.9 hPa | 0 mm | - | - | - |
| 1777522348 | -2.22° C | 83% | 1029.9 hPa | 0 mm | - | - | - |
| 1777521735 | -2.22° C | 83% | 1029.8 hPa | 0 mm | - | - | - |
| 1777521134 | -2.22° C | 83% | 1029.6 hPa | 0 mm | - | - | - |
| 1777520523 | -2.22° C | 84% | 1029.6 hPa | 0 mm | - | - | - |
| 1777519912 | -2.78° C | 84% | 1029.5 hPa | 0 mm | - | - | - |
| 1777519310 | -2.78° C | 84% | 1029.5 hPa | 0 mm | - | - | - |
| 1777518697 | -2.78° C | 84% | 1029.5 hPa | 0 mm | - | - | - |
| 1777518097 | -2.78° C | 84% | 1029.5 hPa | 0 mm | - | - | - |
| 1777517484 | -2.78° C | 84% | 1029.5 hPa | 0 mm | - | - | - |
| 1777516872 | -2.22° C | 84% | 1029.6 hPa | 0 mm | - | - | - |
| 1777516272 | -2.22° C | 84% | 1029.6 hPa | 0 mm | - | - | - |
| 1777515660 | -2.22° C | 83% | 1029.5 hPa | 0 mm | - | - | - |
| 1777515059 | -2.22° C | 83% | 1029.5 hPa | 0 mm | - | - | - |
| 1777514447 | -2.22° C | 83% | 1029.6 hPa | 0 mm | - | - | - |
| 1777513848 | -2.22° C | 83% | 1029.5 hPa | 0 mm | - | - | - |
| 1777513235 | -2.22° C | 83% | 1029.6 hPa | 0 mm | - | - | - |
| 1777512634 | -1.67° C | 83% | 1029.4 hPa | 0 mm | - | - | - |
| 1777512024 | -2.22° C | 83% | 1029.4 hPa | 0 mm | - | - | - |
| 1777511409 | -1.67° C | 83% | 1029.4 hPa | 0 mm | - | - | - |
* Rain latest hour (hover to see other rain measurements)
** Current wind speed in m/s (hover to see current wind gust speed)